�������l�o���
Date,Time,MP-1(��Sv/h),MP-2(��Sv/h),MP-3(��Sv/h),MP-4(��Sv/h),MP-5(��Sv/h),MP-6(��Sv/h),MP-7(��Sv/h),����,����(m/s),���J
2013/12/22,00:00,0.8,0.5,0.8,0.7,0.7,0.3,0.3,�k�k��,3.6,��
2013/12/22,00:10,0.8,0.5,0.8,0.7,0.7,0.3,0.3,�k��,2.4,��
2013/12/22,00:20,0.8,0.5,0.8,0.7,0.7,0.3,0.3,�k��,2.7,��
2013/12/22,00:30,0.8,0.5,0.8,0.7,0.7,0.3,0.3,�k��,3.9,��
2013/12/22,00:40,0.8,0.5,0.8,0.7,0.7,0.3,0.3,�k��,4.6,��
2013/12/22,00:50,0.8,0.5,0.8,0.7,0.7,0.3,0.3,�k��,3.8,��
2013/12/22,01:00,0.8,0.5,0.8,0.7,0.7,0.3,0.3,�k��,3.9,��
2013/12/22,01:10,0.8,0.5,0.8,0.7,0.7,0.3,0.3,�k��,3.2,��
2013/12/22,01:20,0.8,0.5,0.8,0.7,0.7,0.3,0.3,�k��,1.8,��
2013/12/22,01:30,0.8,0.5,0.8,0.7,0.7,0.3,0.3,���k��,1.9,��
2013/12/22,01:40,0.8,0.5,0.8,0.7,0.7,0.3,0.3,�k�k��,4.0,��
2013/12/22,01:50,0.8,0.5,0.8,0.7,0.7,0.3,0.3,�k�k��,5.8,��
2013/12/22,02:00,0.8,0.5,0.8,0.7,0.7,0.3,0.3,�k,4.5,��
2013/12/22,02:10,0.8,0.5,0.8,0.7,0.7,0.3,0.3,�k�k��,3.0,��
2013/12/22,02:20,0.8,0.5,0.8,0.7,0.7,0.3,0.3,���k��,1.2,��
2013/12/22,02:30,0.8,0.5,0.8,0.7,0.7,0.3,0.3,���k��,2.6,��
2013/12/22,02:40,0.8,0.5,0.8,0.7,0.7,0.3,0.3,�k�k��,3.5,��
2013/12/22,02:50,0.8,0.5,0.8,0.7,0.7,0.3,0.3,�k�k��,3.2,��
2013/12/22,03:00,0.8,0.5,0.8,0.7,0.7,0.3,0.3,�k,3.4,��
2013/12/22,03:10,0.8,0.5,0.8,0.7,0.7,0.3,0.3,�k��,2.1,��
2013/12/22,03:20,0.8,0.5,0.8,0.7,0.7,0.3,0.3,�k�k��,1.9,��
2013/12/22,03:30,0.8,0.5,0.8,0.7,0.7,0.3,0.3,�k��,2.8,��
2013/12/22,03:40,0.8,0.5,0.8,0.7,0.7,0.3,0.3,�k��,4.9,��
2013/12/22,03:50,0.8,0.5,0.8,0.7,0.7,0.3,0.3,�k�k��,2.6,��
2013/12/22,04:00,0.8,0.5,0.8,0.7,0.7,0.3,0.3,���k��,1.4,��
2013/12/22,04:10,0.8,0.5,0.8,0.7,0.7,0.3,0.3,��,1.3,��
2013/12/22,04:20,0.8,0.5,0.8,0.7,0.7,0.3,0.3,��,1.9,��
2013/12/22,04:30,0.8,0.5,0.8,0.7,0.7,0.3,0.3,���k��,2.2,��
2013/12/22,04:40,0.8,0.5,0.8,0.7,0.7,0.3,0.3,���k��,5.7,��
2013/12/22,04:50,0.8,0.5,0.8,0.7,0.7,0.3,0.3,���k��,7.8,��
2013/12/22,05:00,0.8,0.5,0.8,0.7,0.7,0.3,0.3,���k��,8.1,��
2013/12/22,05:10,0.8,0.5,0.8,0.7,0.7,0.3,0.3,���k��,5.3,��
2013/12/22,05:20,0.8,0.5,0.8,0.7,0.7,0.3,0.3,��,3.6,��
2013/12/22,05:30,0.8,0.5,0.8,0.7,0.7,0.3,0.3,��,5.0,��
2013/12/22,05:40,0.8,0.5,0.8,0.7,0.7,0.3,0.3,�k��,2.8,��
2013/12/22,05:50,0.8,0.5,0.8,0.7,0.7,0.3,0.3,���k��,3.9,��
2013/12/22,06:00,0.8,0.5,0.8,0.7,0.7,0.3,0.3,���k��,3.4,��
2013/12/22,06:10,0.8,0.5,0.8,0.7,0.7,0.3,0.3,���k��,4.7,��
2013/12/22,06:20,0.8,0.5,0.8,0.7,0.7,0.3,0.3,��,4.7,��
2013/12/22,06:30,0.8,0.5,0.8,0.7,0.7,0.3,0.3,��,5.2,��
2013/12/22,06:40,0.8,0.5,0.8,0.7,0.7,0.3,0.3,���k��,5.8,��
2013/12/22,06:50,0.8,0.5,0.8,0.7,0.7,0.3,0.3,���k��,5.0,��
2013/12/22,07:00,0.8,0.5,0.8,0.7,0.7,0.3,0.3,���k��,8.2,��
2013/12/22,07:10,0.8,0.5,0.8,0.7,0.7,0.3,0.3,�k��,4.1,��
2013/12/22,07:20,0.8,0.5,0.8,0.7,0.7,0.3,0.3,���k��,3.3,��
2013/12/22,07:30,0.8,0.5,0.8,0.7,0.7,0.3,0.3,���k��,3.9,��
2013/12/22,07:40,0.8,0.5,0.8,0.7,0.7,0.3,0.3,���k��,4.6,��
2013/12/22,07:50,0.8,0.5,0.8,0.7,0.7,0.3,0.3,�k�k��,4.1,��
2013/12/22,08:00,0.8,0.5,0.8,0.7,0.7,0.3,0.3,�k��,6.2,��
2013/12/22,08:10,0.8,0.5,0.8,0.7,0.7,0.3,0.3,�k�k��,4.1,��
2013/12/22,08:20,0.8,0.5,0.8,0.7,0.7,0.3,0.3,�k�k��,5.7,��
2013/12/22,08:30,0.8,0.5,0.8,0.7,0.7,0.3,0.3,�k,6.2,��
2013/12/22,08:40,0.8,0.5,0.8,0.7,0.7,0.3,0.3,�k,5.9,��
2013/12/22,08:50,0.8,0.5,0.8,0.7,0.7,0.3,0.3,�k,4.5,��
2013/12/22,09:00,0.8,0.5,0.8,0.7,0.7,0.3,0.3,�k,4.1,��
2013/12/22,09:10,0.8,0.5,0.8,0.7,0.7,0.3,0.3,�k�k��,3.6,��
2013/12/22,09:20,0.8,0.5,0.8,0.7,0.7,0.3,0.3,�k�k��,3.3,��
2013/12/22,09:30,0.8,0.5,0.8,0.7,0.7,0.3,0.3,�k,3.2,��
2013/12/22,09:40,0.8,0.5,0.8,0.7,0.7,0.3,0.3,�k,3.3,��
2013/12/22,09:50,0.8,0.5,0.8,0.7,0.7,0.3,0.3,�k�k��,2.2,��
2013/12/22,10:00,0.8,0.5,0.8,0.7,0.7,0.3,0.3,�k��,2.5,��
2013/12/22,10:10,0.8,0.5,0.8,0.7,0.7,0.3,0.3,��,3.3,��
2013/12/22,10:20,0.8,0.5,0.8,0.7,0.7,0.3,0.3,�k��,2.5,��
2013/12/22,10:30,0.8,0.5,0.8,0.7,0.7,0.3,0.3,�k��,2.3,��
2013/12/22,10:40,0.8,0.5,0.8,0.7,0.7,0.3,0.3,���k��,3.6,��
2013/12/22,10:50,0.8,0.5,0.8,0.7,0.7,0.3,0.3,��,11.8,��
2013/12/22,11:00,0.8,0.5,0.8,0.7,0.7,0.3,0.3,���k��,9.8,��
2013/12/22,11:10,0.8,0.5,0.8,0.7,0.7,0.3,0.3,���k��,10.0,��
2013/12/22,11:20,0.8,0.5,0.8,0.7,0.7,0.3,0.3,��,12.0,��
2013/12/22,11:30,0.8,0.5,0.8,0.7,0.7,0.3,0.3,���k��,13.2,��
2013/12/22,11:40,0.8,0.5,0.8,0.7,0.7,0.3,0.3,��,11.3,��
2013/12/22,11:50,0.8,0.5,0.8,0.7,0.7,0.3,0.3,��,12.6,��
2013/12/22,12:00,0.8,0.5,0.8,0.7,0.7,0.3,0.3,��,12.2,��
2013/12/22,12:10,0.8,0.5,0.8,0.7,0.7,0.3,0.3,���k��,10.2,��
2013/12/22,12:20,0.8,0.5,0.8,0.7,0.7,0.3,0.3,���k��,11.1,��
2013/12/22,12:30,0.8,0.5,0.8,0.7,0.7,0.3,0.3,���k��,11.0,��
2013/12/22,12:40,0.8,0.5,0.8,0.7,0.7,0.3,0.3,��,13.2,��
2013/12/22,12:50,0.8,0.5,0.8,0.7,0.7,0.3,0.3,���k��,13.4,��
2013/12/22,13:00,0.8,0.5,0.8,0.7,0.7,0.3,0.3,���k��,10.1,��
2013/12/22,13:10,0.8,0.5,0.8,0.7,0.7,0.3,0.3,���k��,11.8,��
2013/12/22,13:20,0.8,0.5,0.8,0.7,0.7,0.3,0.3,���k��,10.1,��
2013/12/22,13:30,0.8,0.5,0.8,0.7,0.7,0.3,0.3,���k��,9.0,��
2013/12/22,13:40,0.8,0.5,0.8,0.7,0.7,0.3,0.3,���k��,10.0,��
2013/12/22,13:50,0.8,0.5,0.8,0.7,0.7,0.3,0.3,���k��,8.7,��
2013/12/22,14:00,0.8,0.5,0.8,0.7,0.7,0.3,0.3,���k��,10.7,��
2013/12/22,14:10,0.8,0.5,0.8,0.7,0.7,0.3,0.3,��,6.4,��
2013/12/22,14:20,0.8,0.5,0.8,0.7,0.7,0.3,0.3,���k��,8.1,��
2013/12/22,14:30,0.8,0.5,0.8,0.7,0.7,0.3,0.3,��,7.3,��
2013/12/22,14:40,0.8,0.5,0.8,0.7,0.7,0.3,0.3,��,6.2,��
2013/12/22,14:50,0.8,0.5,0.8,0.7,0.7,0.3,0.3,���k��,7.3,��
2013/12/22,15:00,0.8,0.5,0.8,0.7,0.7,0.3,0.3,���k��,7.5,��
2013/12/22,15:10,0.8,0.5,0.8,0.7,0.7,0.3,0.3,���k��,7.9,��
2013/12/22,15:20,0.8,0.5,0.8,0.7,0.7,0.3,0.3,�k��,5.0,��
2013/12/22,15:30,0.8,0.5,0.8,0.7,0.7,0.3,0.3,�k�k��,3.6,��
2013/12/22,15:40,0.8,0.5,0.8,0.7,0.7,0.3,0.3,��,8.1,��
2013/12/22,15:50,0.8,0.5,0.8,0.7,0.7,0.3,0.3,���k��,6.6,��
2013/12/22,16:00,0.8,0.5,0.8,0.7,0.7,0.3,0.3,���k��,3.5,��
2013/12/22,16:10,0.8,0.5,0.8,0.7,0.7,0.3,0.3,���k��,2.8,��
2013/12/22,16:20,0.8,0.5,0.8,0.7,0.7,0.3,0.3,�k�k��,3.1,��
2013/12/22,16:30,0.8,0.5,0.8,0.7,0.7,0.3,0.3,�k�k��,3.1,��
2013/12/22,16:40,0.8,0.5,0.8,0.7,0.7,0.3,0.3,�k�k��,3.0,��
2013/12/22,16:50,0.8,0.5,0.8,0.7,0.7,0.3,0.3,�k�k��,2.3,��
2013/12/22,17:00,0.8,0.5,0.8,0.7,0.7,0.3,0.3,�k��,3.5,��
2013/12/22,17:10,0.8,0.5,0.8,0.7,0.7,0.3,0.3,�k�k��,3.0,��
2013/12/22,17:20,0.8,0.5,0.8,0.7,0.7,0.3,0.3,�k�k��,2.1,��
2013/12/22,17:30,0.8,0.5,0.8,0.7,0.7,0.3,0.3,�k,2.7,��
2013/12/22,17:40,0.8,0.5,0.8,0.7,0.7,0.3,0.3,�k,3.9,��
2013/12/22,17:50,0.8,0.5,0.8,0.7,0.7,0.3,0.3,�k,4.3,��
2013/12/22,18:00,0.8,0.5,0.8,0.7,0.7,0.3,0.3,�k,4.3,�L
2013/12/22,18:10,0.8,0.5,0.8,0.7,0.7,0.3,0.3,�k,4.2,�L
2013/12/22,18:20,0.8,0.5,0.8,0.7,0.7,0.3,0.3,�k�k��,3.9,�L
2013/12/22,18:30,0.8,0.5,0.8,0.7,0.7,0.3,0.3,�k�k��,1.9,�L
2013/12/22,18:40,0.8,0.5,0.8,0.7,0.7,0.3,0.3,�k,2.5,�L
2013/12/22,18:50,0.8,0.5,0.8,0.7,0.7,0.3,0.3,�k,5.4,�L
2013/12/22,19:00,0.8,0.5,0.8,0.7,0.7,0.3,0.3,�k�k��,5.6,�L
2013/12/22,19:10,0.8,0.5,0.8,0.7,0.7,0.3,0.3,�k�k��,5.3,��
2013/12/22,19:20,0.8,0.5,0.8,0.7,0.7,0.3,0.3,�k,4.2,�L
2013/12/22,19:30,0.8,0.5,0.8,0.7,0.7,0.3,0.3,�k,3.3,�L
2013/12/22,19:40,0.8,0.5,0.8,0.7,0.7,0.3,0.3,�k,1.7,�L
2013/12/22,19:50,0.8,0.5,0.8,0.7,0.7,0.3,0.3,�k,1.5,�L
2013/12/22,20:00,0.8,0.5,0.8,0.7,0.7,0.3,0.3,�k,2.2,��
2013/12/22,20:10,0.8,0.5,0.8,0.7,0.7,0.3,0.3,�k�k��,2.5,�L
2013/12/22,20:20,0.8,0.5,0.8,0.7,0.7,0.3,0.3,�k�k��,3.0,�L
2013/12/22,20:30,0.8,0.5,0.8,0.7,0.7,0.3,0.3,�k,3.2,�L
2013/12/22,20:40,0.8,0.5,0.8,0.7,0.7,0.3,0.3,�k�k��,3.4,��
2013/12/22,20:50,0.8,0.5,0.8,0.7,0.7,0.3,0.3,�k,4.7,�L
2013/12/22,21:00,0.8,0.5,0.8,0.7,0.7,0.3,0.3,�k�k��,4.1,�L
2013/12/22,21:10,0.8,0.5,0.8,0.7,0.7,0.3,0.3,�k,3.5,�L
2013/12/22,21:20,0.8,0.5,0.8,0.7,0.7,0.3,0.3,�k�k��,3.4,�L
2013/12/22,21:30,0.8,0.5,0.8,0.7,0.7,0.3,0.3,�k,3.3,�L
2013/12/22,21:40,0.8,0.5,0.8,0.7,0.7,0.3,0.3,�k,3.1,�L
2013/12/22,21:50,0.8,0.5,0.8,0.7,0.7,0.3,0.3,�k,3.1,�L
2013/12/22,22:00,0.8,0.5,0.8,0.7,0.7,0.3,0.3,�k�k��,2.4,�L
2013/12/22,22:10,0.8,0.5,0.8,0.7,0.7,0.3,0.3,�k�k��,1.7,�L
2013/12/22,22:20,0.8,0.5,0.8,0.7,0.7,0.3,0.3,�k,2.1,�L
2013/12/22,22:30,0.8,0.5,0.8,0.7,0.7,0.3,0.3,�k�k��,1.5,�L
2013/12/22,22:40,0.8,0.5,0.8,0.7,0.7,0.3,0.3,�k��,1.7,��
2013/12/22,22:50,0.8,0.5,0.8,0.7,0.7,0.3,0.3,�k�k��,0.9,��
2013/12/22,23:00,0.8,0.5,0.8,0.7,0.7,0.3,0.3,-,CALM,��
2013/12/22,23:10,0.8,0.5,0.8,0.7,0.7,0.3,0.3,-,CALM,��
2013/12/22,23:20,0.8,0.5,0.8,0.7,0.7,0.3,0.3,-,CALM,��
2013/12/22,23:30,0.8,0.5,0.8,0.7,0.7,0.3,0.3,���k��,0.5,��
2013/12/22,23:40,0.8,0.5,0.8,0.7,0.7,0.3,0.3,��,1.9,��
2013/12/22,23:50,0.8,0.5,0.8,0.7,0.7,0.3,0.3,���쐼,0.8,��
